This demonstration page uses our WeatherBlox Daily Observations layout. Learn more.

Left ArrowRight Arrow

Hourly Observations for October 2, 2018

Temp ( °F °C ) Dew Point ( °F °C ) Humidity (%) Winds ( mph kmh ) Pressure ( in mb ) Visibility ( mi km ) Precip ( " mm )
12:51 am 00:51 Clear 67 19.4 64 17.8 91 91 SE 10 17 29.87 1011 10 16 0.00 0.00
1:51 am 01:51 Clear 66 18.9 65 18.3 96 96 E 7 11 29.86 1011 10 16 0.00 0.00
2:51 am 02:51 Clear 67 19.4 64 17.8 91 91 SE 9 15 29.86 1011 10 16 0.00 0.00
3:51 am 03:51 Clear 67 19.4 64 17.8 91 91 SSE 8 13 29.88 1012 10 16 0.00 0.00
4:51 am 04:51 Partly Cloudy 68 20 64 17.8 87 87 SE 8 13 29.88 1012 10 16 0.00 0.00
5:51 am 05:51 Cloudy 68 20 64 17.8 87 87 SE 10 17 29.88 1012 10 16 0.00 0.00
6:51 am 06:51 Sunny 68 20 64 17.8 87 87 SE 10 17 29.89 1012 10 16 0.00 0.00
7:51 am 07:51 Mostly Cloudy 70 21.1 65 18.3 84 84 SE 9 15 29.90 1013 10 16 0.00 0.00
8:51 am 08:51 Sunny 78 25.6 64 17.8 62 62 E 15 24 29.89 1012 10 16 0.00 0.00
9:51 am 09:51 Sunny 81 27.2 62 16.7 53 53 SSE 13 20 29.89 1012 10 16 0.00 0.00
10:51 am 10:51 Partly Cloudy 84 28.9 60 15.6 44 44 SSE 9 15 29.88 1012 10 16 0.00 0.00
11:51 am 11:51 Partly Cloudy 86 30 59 15 40 40 SSE 15 24 29.84 1011 10 16 0.00 0.00
12:51 pm 12:51 Partly Cloudy 88 31.1 57 13.9 35 35 S 9 15 29.80 1009 10 16 0.00 0.00
1:51 pm 13:51 Sunny 90 32.2 55 12.8 31 31 S 12 19 29.77 1008 10 16 0.00 0.00
2:51 pm 14:51 Mostly Sunny 89 31.7 51 10.6 27 27 SSW 14 22 29.75 1008 10 16 0.00 0.00
3:51 pm 15:51 Cloudy 87 30.6 53 11.7 31 31 SSW 14 22 29.75 1008 10 16 0.00 0.00
4:51 pm 16:51 Cloudy 85 29.4 55 12.8 36 36 WNW 8 13 29.76 1008 10 16 0.00 0.00
5:51 pm 17:51 Partly Cloudy 81 27.2 58 14.4 45 45 WNW 18 30 29.78 1009 10 16 0.00 0.00
6:51 pm 18:51 Mostly Cloudy 78 25.6 62 16.7 58 58 NW 13 20 29.81 1009 10 16 0.00 0.00
7:51 pm 19:51 Partly Cloudy 77 25 63 17.2 62 62 WNW 16 26 29.83 1010 10 16 0.00 0.00
8:51 pm 20:51 Clear 75 23.9 62 16.7 64 64 W 10 17 29.84 1010 10 16 0.00 0.00
9:51 pm 21:51 Clear 72 22.2 65 18.3 79 79 W 10 17 29.85 1011 10 16 0.00 0.00
10:51 pm 22:51 Mostly Cloudy 71 21.7 65 18.3 81 81 W 12 19 29.84 1011 10 16 0.00 0.00
11:51 pm 23:51 Clear 69 20.6 65 18.3 87 87 NNW 3 6 29.85 1011 10 16 0.00 0.00

Powered by AerisWeather